CZ-6A DEB

Satellite information

Favourite Embed

Satellite Type and Status

DEBRISIN ORBIT

Key statistics

Satellite CZ-6A DEB at a glance.

Uptime

495

Days in orbit

Revolutions

≈ 14.3

Per day

Orbit

LEO

Low Earth Orbit

Inclination

89.0

Latest

Satellite identification and parameters

Extended collection of information and parameters for CZ-6A DEB.

Object identification

Identified? True

Debris? True

Object name: CZ-6A DEB

International designator: 2024-140SP

Object number (NORAD): 61278

Object ID (CCSDS): 61278

Country: PEOPLES REPUBLIC OF CHINA (PRC)

Current information (Y/N): Y

RCS size: SMALL

Orbital parameters

Period: 100.801 minutes

Inclination: 89.0142 deg

SMA: 7174.685 km

Apoapsis: 809.028 km

Periapsis: 784.071 km

RAAN: 296.0015 deg

Eccentricy: 0.0017392

Argument of periapsis: 47.6514 deg

Mean anomaly: 312.615 deg

Mean motion: 14.28560205 rev/day

Mean motion (dot): 0.00003982 rev/day2

B* drag term: 0.0015802 1/REarth

Two-line elements (TLE)

Creation date: Dec. 12, 2025, 7:26 a.m.

Reference frame: TEME

Reference center: EARTH

Epoch: Dec. 11, 2025, 9:28 p.m. UTC

TLE line 0: 0 CZ-6A DEB

TLE line 1: 1 61278U 24140SP 25345.89494534 .00003982 00000-0 15802-2 0 9990

TLE line 2: 2 61278 89.0142 296.0015 0017392 47.6514 312.6150 14.28560205 67286

Live tracking on map

Real-time ground track for satellite CZ-6A DEB.

In-orbit conjunctions

A list of the most updated potential collisions computed for object CZ-6A DEB.

Target Orbit TCA Probability of collision Miss distance Type
CZ-6A DEB SSO 2025-05-22 22:16:14 0.0001969904 132.0 (m) DEBRIS
CZ-6A DEB LEO 2025-02-21 19:10:49 0.0001690335 328.0 (m) DEBRIS
FENGYUN 1C DEB SSO 2025-02-11 14:15:27 0.0009194324 98.0 (m) DEBRIS
THOR ABLESTAR DEB LEO 2025-01-24 23:42:27 0.0002384565 363.0 (m) DEBRIS
SCOUT G-1 DEB LEO 2024-11-10 16:36:53 0.000682413 916.0 (m) DEBRIS

Associated space launch

18 Low Earth Orbit communication satellites with Ku, Q and V band payloads for the G60 constellation operated by Shanghai Spacecom Satellite Technology (SSST) with funding backed by the Shanghai local government. Initial constellation will consist of 1296 satellites by 2027 with long term plans to expand it to 12000 satellites.

CZ-6A DEB was lifted into orbit during the mission ‘Long March 6A | G60 Polar Group 01’, on board a Long March 6A space rocket.

The launch took place on Aug. 6, 2024, 6:42 a.m. from Launch Complex 9A.

For more information about the launch, click the button.

Launch to space Long March 6A | G60 Polar Group 01
Long March 6A | G60 Polar Group 01

Agency: N/A

Status: Launch Successful

Launch date: Aug. 6, 2024, 6:42 a.m. UTC

Rocket: Long March 6A

Launch pad: Launch Complex 9A

Location: Taiyuan Satellite Launch Center, People's Republic of China

...

Latest news about this satellite

News about space launch
Brightness of first Chinese broadband constellation satellites alarms astronomers

The first satellites of a Chinese broadband constellation are significantly brighter than those of Western systems, posing a new challenge for astronomers.

News about space launch
Chinese rocket stage breaks up into cloud of more than 700 pieces of space debris

HELSINKI — A Chinese Long March 6A rocket’s upper stage has fragmented into a cloud of over 700 pieces of space debris, adding to concerns about long-term orbital safety. China […]

News about space launch
China's Thousand Sails Megaconstellation Kicks Off with Dangerous Debris Field

China's Thousand Sails Megaconstellation Kicks Off with Dangerous Debris Field


Newsletter sign-up

Weekly statistics, charts and insights to help you stay on top of the space industry.